Location: Wavehorne
(51.0500°N, 0.8333°E)
Time: 19:56:31
(UTC+00:00)

Cosmos 1763 Rocket - Pass Details

Date: 20 June 2021
Orbit: 732 x 781 km, 74.0° (Epoch: 02 August)

Event Time Altitude Azimuth Distance (km) Brightness Sun altitude
Exits shadow 01:15:44 19° 213° (SSW) 1,694 4.7 -13.6°
Maximum altitude 01:19:21 73° 296° (WNW) 779 3.5 -13.4°
Drops below altitude 10° 01:24:31 10° 22° (NNE) 2,279 7.5 -13.1°
Sets 01:26:55 0° 24° (NNE) 3,215 8.8 -13.0°
